E24CR-1 Weather Reports


Display with metric or nautical units.
time (UTC)temp
F
wind
direction
speed
MPH
gust
MPH
rain 1hr
in
rain 24hr
in
rain mn
in
humidity
%
barometer
mb
20260901154253 78 0 0.0 0.0 0.00 0.00 0.00 83 953.0
20260901153229 78 0 0.0 0.0 0.00 0.00 0.00 81 953.0
20260901152201 79 0 0.0 0.0 0.00 0.00 0.00 78 953.0
20260901151512 79 0 0.0 0.0 0.00 0.00 0.00 76 953.0
20260901150448 79 0 0.0 0.0 0.00 0.00 0.00 76 953.0
20260901145423 79 0 0.0 0.0 0.00 0.00 0.00 80 953.0
20260901144359 79 0 0.0 0.0 0.00 0.00 0.00 79 953.0
20260901143334 78 0 0.0 0.0 0.00 0.00 0.00 84 952.0
20260901142310 79 0 0.0 0.0 0.00 0.00 0.00 80 952.0
20260901141246 80 0 0.0 0.0 0.00 0.00 0.00 71 952.0
20260901140221 80 0 0.0 0.0 0.00 0.00 0.00 71 952.0
20260901135157 80 0 0.0 0.0 0.00 0.00 0.00 72 952.0
20260901134132 80 0 0.0 0.0 0.00 0.00 0.00 74 951.0
20260901133108 80 0 0.0 0.0 0.00 0.00 0.00 76 951.0
20260901132044 81 0 0.0 0.0 0.00 0.00 0.00 73 951.0
20260901131019 81 0 0.0 0.0 0.00 0.00 0.00 71 951.0
20260901125955 81 0 0.0 0.0 0.00 0.00 0.00 69 951.0
20260901124930 81 0 0.0 0.0 0.00 0.00 0.00 71 951.0
20260901123906 82 0 0.0 0.0 0.00 0.00 0.00 72 951.0
20260901122842 82 0 0.0 0.0 0.00 0.00 0.00 66 951.0
20260901121817 82 0 0.0 0.0 0.00 0.00 0.00 66 951.0
20260901120753 82 0 0.0 0.0 0.00 0.00 0.00 66 950.0
20260901115728 82 0 0.0 0.0 0.00 0.00 0.00 67 950.0
20260901114704 82 0 0.0 0.0 0.00 0.00 0.00 68 950.0
20260901113639 82 0 0.0 0.0 0.00 0.00 0.00 71 950.0
20260901112614 83 0 0.0 0.0 0.00 0.00 0.00 67 949.0
20260901111549 83 0 0.0 0.0 0.00 0.00 0.00 64 949.0
20260901110523 84 0 0.0 0.0 0.00 0.00 0.00 64 949.0
20260901105455 83 0 0.0 0.0 0.00 0.00 0.00 66 949.0
20260901104430 83 0 0.0 0.0 0.00 0.00 0.00 68 949.0
20260901103404 83 0 0.0 0.0 0.00 0.00 0.00 70 949.0
20260901102338 84 0 0.0 0.0 0.00 0.00 0.00 65 949.0
20260901101312 84 0 0.0 0.0 0.00 0.00 0.00 66 949.0
20260901100247 84 0 0.0 0.0 0.00 0.00 0.00 64 949.0
20260901095222 84 0 0.0 0.0 0.00 0.00 0.00 65 949.0
20260901094158 84 0 0.0 0.0 0.00 0.00 0.00 65 949.0
20260901093133 84 0 0.0 0.0 0.00 0.00 0.00 65 949.0
20260901092109 84 0 0.0 0.0 0.00 0.00 0.00 68 949.0
20260901091044 84 0 0.0 0.0 0.00 0.00 0.00 69 949.0
20260901090020 83 0 0.0 0.0 0.00 0.00 0.00 71 949.0
20260901084954 83 0 0.0 0.0 0.00 0.00 0.00 70 949.0
20260901083928 83 0 0.0 0.0 0.00 0.00 0.00 73 949.0
20260901082904 83 0 0.0 0.0 0.00 0.00 0.00 68 949.0
20260901081839 84 0 0.0 0.0 0.00 0.00 0.00 65 949.0
20260901080815 85 0 0.0 0.0 0.00 0.00 0.00 64 949.0
20260901075751 85 0 0.0 0.0 0.00 0.00 0.00 63 949.0
20260901074726 87 0 0.0 0.0 0.00 0.00 0.00 61 949.0
20260901073700 87 0 0.0 0.0 0.00 0.00 0.00 62 949.0
20260901072635 86 0 0.0 0.0 0.00 0.00 0.00 62 949.0
20260901071610 87 0 0.0 0.0 0.00 0.00 0.00 61 950.0
20260901070333 87 0 0.0 0.0 0.00 0.00 0.00 62 950.0
20260901065309 86 0 0.0 0.0 0.00 0.00 0.00 61 950.0
20260901064245 86 0 0.0 0.0 0.00 0.00 0.00 61 950.0
20260901063220 87 0 0.0 0.0 0.00 0.00 0.00 64 950.0
20260901062154 87 0 0.0 0.0 0.00 0.00 0.00 63 950.0
20260901061130 87 0 0.0 0.0 0.00 0.00 0.00 61 951.0
20260901060202 86 0 0.0 0.0 0.00 0.00 0.00 63 951.0
20260901055137 86 0 0.0 0.0 0.00 0.00 0.00 68 951.0
20260901054112 86 0 0.0 0.0 0.00 0.00 0.00 65 951.0
20260901053047 86 0 0.0 0.0 0.00 0.00 0.00 64 951.0
20260901052023 85 0 0.0 0.0 0.00 0.00 0.00 64 952.0
20260901050958 84 0 0.0 0.0 0.00 0.00 0.00 70 952.0
20260901045933 83 0 0.0 0.0 0.00 0.00 0.00 70 952.0
20260901044908 86 0 0.0 0.0 0.00 0.00 0.00 60 952.0
20260901043844 88 0 0.0 0.0 0.00 0.00 0.00 65 952.0
20260901042819 83 0 0.0 0.0 0.00 0.00 0.00 68 952.0
20260901041755 84 0 0.0 0.0 0.00 0.00 0.00 68 952.0
20260901040730 85 0 0.0 0.0 0.00 0.00 0.00 66 952.0
20260901035705 85 0 0.0 0.0 0.00 0.00 0.00 66 952.0
20260901034640 84 0 0.0 0.0 0.00 0.00 0.00 65 953.0
20260901034254 84 0 0.0 0.0 0.00 0.00 0.00 67 953.0
20260901033230 85 0 0.0 0.0 0.00 0.00 0.00 67 952.0
20260901032205 82 0 0.0 0.0 0.00 0.00 0.00 71 953.0
20260901031139 84 0 0.0 0.0 0.00 0.00 0.00 70 953.0
20260901030115 82 0 0.0 0.0 0.00 0.00 0.00 71 953.0
20260901025051 85 0 0.0 0.0 0.00 0.00 0.00 67 953.0
20260901024027 82 0 0.0 0.0 0.00 0.00 0.00 76 952.0
20260901023001 80 0 0.0 0.0 0.00 0.00 0.00 78 952.0
20260901021936 78 0 0.0 0.0 0.00 0.00 0.00 83 952.0
20260901020911 78 0 0.0 0.0 0.00 0.00 0.00 80 953.0
20260831203525 74 0 0.0 0.0 0.00 0.00 0.00 87 951.0
20260831202501 74 0 0.0 0.0 0.00 0.00 0.00 87 951.0
20260831201436 74 0 0.0 0.0 0.00 0.00 0.00 85 951.0
20260831200412 74 0 0.0 0.0 0.00 0.00 0.00 85 951.0
20260831195347 74 0 0.0 0.0 0.00 0.00 0.00 85 951.0
20260831194323 74 0 0.0 0.0 0.00 0.00 0.00 85 951.0
20260831193258 74 0 0.0 0.0 0.00 0.00 0.00 85 951.0
20260831192234 74 0 0.0 0.0 0.00 0.00 0.00 85 951.0
20260831191210 74 0 0.0 0.0 0.00 0.00 0.00 85 951.0
20260831190145 74 0 0.0 0.0 0.00 0.00 0.00 85 951.0
20260831185121 74 0 0.0 0.0 0.00 0.00 0.00 85 951.0
20260831184056 74 0 0.0 0.0 0.00 0.00 0.00 85 952.0
20260831183031 74 0 0.0 0.0 0.00 0.00 0.00 86 952.0
20260831182007 74 0 0.0 0.0 0.00 0.00 0.00 86 952.0
20260831180943 74 0 0.0 0.0 0.00 0.00 0.00 87 952.0
20260831175919 74 0 0.0 0.0 0.00 0.00 0.00 87 952.0
20260831174854 74 0 0.0 0.0 0.00 0.00 0.00 87 952.0
20260831173829 74 0 0.0 0.0 0.00 0.00 0.00 86 952.0
20260831172805 74 0 0.0 0.0 0.00 0.00 0.00 87 952.0
20260831171741 74 0 0.0 0.0 0.00 0.00 0.00 88 952.0
20260831170716 74 0 0.0 0.0 0.00 0.00 0.00 87 952.0
20260831165651 74 0 0.0 0.0 0.00 0.00 0.00 87 952.0
20260831164627 74 0 0.0 0.0 0.00 0.00 0.00 87 952.0
20260831163602 74 0 0.0 0.0 0.00 0.00 0.00 86 952.0
20260831162538 74 0 0.0 0.0 0.00 0.00 0.00 88 952.0
20260831161513 74 0 0.0 0.0 0.00 0.00 0.00 88 952.0
20260831160448 74 0 0.0 0.0 0.00 0.00 0.00 87 952.0
20260831155424 74 0 0.0 0.0 0.00 0.00 0.00 86 952.0